Home > Weather > Altstätten > Past weeks

Flag for Switzerland Past Weather in Altstätten, St. Gallen, Switzerland — Yesterday and Last 2 Weeks

Now
64 °F

Fog.


Feels Like: 64 °F
Forecast: 60 / 83 °F
Wind: 1 mph from North

Location: Saint Gallen-Altenrhein

Current Time: Aug 26, 2016 at 5:38:13 AM

Latest Report: Aug 26, 2016 at 5:20 AM


Visibility: 3 mi

Pressure: 30.09 "Hg

Humidity: 94%

Dew Point: 63 °F

Location of AltstättenLocation

Past Weather in Altstätten — Graph

°F

Altstätten Temperature Yesterday

Maximum temperature yesterday: 81 °F (at 5:20 PM)
Minimum temperature yesterday: 61 °F (at 2:50 AM)
Average temperature yesterday: 70 °F

High & Low Weather Summary for the Past Weeks

 TemperatureHumidityPressure
High82 °F (Aug 14, 5:20 PM)100% (Aug 13, 5:50 AM)30.42 "Hg (Aug 13, 5:50 AM)
Low52 °F (Aug 11, 4:20 AM)44% (Aug 13, 5:20 PM)29.86 "Hg (Aug 17, 6:50 PM)
Average66 °F77%30.14 "Hg
* Reported Aug 11 4:20 AM — Aug 26 4:20 AM, Altstätten, Weather by CustomWeather, © 2016

Note: Actual official high and low records may vary slightly from our data, if they occured in-between our weather recording intervals... More about our weather records

Advertising

Altstätten Weather History for the Previous 24 Hours

Scroll right to see more
 ConditionsComfort  
Time TempWeatherWind HumidityBarometerVisibility
4:20 AM
Fri, Aug 26
64 °FFog.1 mph94%30.07 "Hg2 mi
3:50 AM64 °FFog.1 mph100%30.07 "Hg1 mi
3:20 AM64 °FFog.2 mph94%30.07 "Hg2 mi
2:50 AM66 °FFog.1 mph94%30.07 "Hg3 mi
2:20 AM64 °FMild.1 mph94%30.07 "Hg5 mi
1:50 AM66 °FClear.2 mph94%30.07 "Hg10 mi
1:20 AM66 °FMild.2 mph94%30.07 "Hg4 mi
12:50 AM68 °FClear.1 mph94%30.07 "Hg10 mi
12:20 AM68 °FClear.2 mph94%30.07 "Hg10 mi
11:50 PM
Thu, Aug 25
68 °FClear.1 mph94%30.07 "Hg10 mi
11:20 PM68 °FClear.1 mph94%30.07 "Hg10 mi
10:50 PM70 °FClear.1 mph88%30.07 "Hg10 mi
10:20 PM70 °FClear.2 mph88%30.07 "Hg10 mi
9:50 PM72 °FClear.2 mph83%30.07 "Hg10 mi
9:20 PM72 °FClear.3 mph88%30.07 "Hg10 mi
8:50 PM75 °FSunny.5 mph78%30.04 "Hg10 mi
8:20 PM72 °FSunny.3 mph88%30.04 "Hg10 mi
7:50 PM79 °FSunny.2 mph70%30.04 "Hg10 mi
7:20 PM81 °FSunny.2 mph66%30.04 "Hg10 mi
6:50 PM81 °FSunny.2 mph66%30.07 "Hg10 mi
6:20 PM81 °FSunny.3 mph66%30.07 "Hg10 mi
5:50 PM81 °FPassing clouds.3 mph66%30.07 "HgN/A
5:20 PM81 °FSunny.2 mph62%30.07 "Hg10 mi
4:50 PM79 °FSunny.3 mph61%30.07 "Hg10 mi
4:20 PM79 °FSunny.5 mph65%30.07 "Hg10 mi
3:50 PM79 °FSunny.3 mph65%30.09 "Hg10 mi
3:20 PM77 °FPassing clouds.3 mph65%30.09 "HgN/A
2:50 PM77 °FSunny.2 mph65%30.09 "Hg10 mi
2:20 PM77 °FSunny.2 mph61%30.09 "Hg10 mi
1:50 PM77 °FSunny.3 mph69%30.12 "Hg10 mi
1:20 PM75 °FSunny.2 mph69%30.12 "Hg10 mi
12:50 PM72 °FPassing clouds.5 mph73%30.12 "HgN/A
12:20 PM72 °FPassing clouds.5 mph78%30.12 "HgN/A
11:50 AM70 °FPassing clouds.3 mph78%30.12 "HgN/A
11:20 AM68 °FPassing clouds.5 mph78%30.12 "HgN/A
10:50 AM70 °FSunny.2 mph78%30.15 "Hg10 mi
10:20 AM66 °FSunny.3 mph78%30.15 "Hg10 mi
9:50 AM66 °FSunny.3 mph78%30.15 "Hg10 mi
9:20 AM64 °FSunny.5 mph83%30.15 "Hg10 mi
8:50 AM64 °FSunny.7 mph83%30.15 "Hg10 mi
8:20 AM64 °FSunny.7 mph88%30.15 "Hg10 mi
7:50 AM63 °FSunny.7 mph88%30.12 "Hg10 mi
7:20 AM63 °FClear.7 mph88%30.12 "Hg10 mi
6:50 AM63 °FClear.6 mph88%30.12 "Hg10 mi
6:20 AM63 °FClear.6 mph88%30.12 "Hg10 mi
5:50 AM63 °FClear.6 mph88%30.12 "Hg10 mi
5:20 AM64 °FPassing clouds.6 mph83%30.12 "HgN/A
Weather by CustomWeather, © 2016

See weather overviewHow to use our weather pages